EW4504 Weather Reports


time (UTC)temp
C
wind
direction
speed
KPH
gust
KPH
rain 1hr
cm
rain 24hr
cm
rain mn
cm
humidity
%
barometer
mb
20260901231030 33 0 1.6 6.4 0.00 0.00 0.00 52 1017.9
20260901230529 33 0 1.6 6.4 0.00 0.00 0.00 51 1017.9
20260901230042 33 43 1.6 6.4 0.00 0.00 0.00 51 1017.9
20260901225535 33 57 3.2 4.8 0.00 0.00 0.00 51 1017.9
20260901225032 33 32 1.6 4.8 0.00 0.00 0.00 50 1017.9
20260901224557 33 0 0.0 8.0 0.00 0.00 0.00 49 1017.9
20260901224030 33 11 3.2 8.0 0.00 0.00 0.00 49 1017.9
20260901223532 33 40 3.2 8.0 0.00 0.00 0.00 49 1017.9
20260901223045 33 30 3.2 8.0 0.00 0.00 0.00 49 1017.9
20260901222533 33 52 3.2 8.0 0.00 0.00 0.00 49 1017.8
20260901222029 33 15 4.8 8.0 0.00 0.00 0.00 49 1017.8
20260901221554 33 119 1.6 6.4 0.00 0.00 0.00 49 1017.7
20260901221032 33 52 3.2 8.0 0.00 0.00 0.00 48 1017.8
20260901220531 33 54 1.6 8.0 0.00 0.00 0.00 48 1017.6
20260901220050 34 98 1.6 14.5 0.00 0.00 0.00 48 1017.6
20260901215530 34 98 1.6 14.5 0.00 0.00 0.00 49 1017.6
20260901215034 33 32 3.2 14.5 0.00 0.00 0.00 48 1017.6
20260901214553 34 156 1.6 6.4 0.00 0.00 0.00 48 1017.6
20260901214033 34 162 3.2 9.7 0.00 0.00 0.00 47 1017.6
20260901213534 35 73 1.6 9.7 0.00 0.00 0.00 46 1017.7
20260901213049 35 46 4.8 9.7 0.00 0.00 0.00 47 1017.6
20260901212532 34 0 0.0 8.0 0.00 0.00 0.00 47 1017.7
20260901212030 35 30 1.6 8.0 0.00 0.00 0.00 47 1017.7
20260901211546 34 0 1.6 11.3 0.00 0.00 0.00 46 1017.8
20260901211033 34 44 3.2 12.9 0.00 0.00 0.00 47 1017.9
20260901210533 34 22 6.4 12.9 0.00 0.00 0.00 47 1017.8
20260901210043 34 336 0.0 6.4 0.00 0.00 0.00 47 1017.9
20260901205530 34 163 1.6 8.0 0.00 0.00 0.00 47 1018.0
20260901205030 34 331 3.2 8.0 0.00 0.00 0.00 46 1018.1
20260901204548 34 331 1.6 8.0 0.00 0.00 0.00 46 1018.2
20260901204032 34 15 1.6 14.5 0.00 0.00 0.00 46 1018.2
20260901203531 35 46 4.8 14.5 0.00 0.00 0.00 47 1018.3
20260901203049 35 44 4.8 16.1 0.00 0.00 0.00 47 1018.2
20260901202532 35 50 6.4 16.1 0.00 0.00 0.00 47 1018.3
20260901202031 34 311 3.2 9.7 0.00 0.00 0.00 48 1018.4
20260901201546 34 0 4.8 11.3 0.00 0.00 0.00 48 1018.3
20260901201030 34 193 1.6 11.3 0.00 0.00 0.00 48 1018.4
20260901200529 33 308 1.6 9.7 0.00 0.00 0.00 49 1018.6
20260901200100 33 0 1.6 8.0 0.00 0.00 0.00 48 1018.6
20260901195532 33 265 1.6 8.0 0.00 0.00 0.00 48 1018.6
20260901195034 33 167 1.6 8.0 0.00 0.00 0.00 49 1018.6
20260901194601 33 165 3.2 6.4 0.00 0.00 0.00 47 1018.6
20260901194029 33 0 0.0 4.8 0.00 0.00 0.00 47 1018.7
20260901193531 34 334 1.6 4.8 0.00 0.00 0.00 49 1018.8
20260901193108 34 0 0.0 9.7 0.00 0.00 0.00 49 1018.9
20260901192530 34 335 3.2 14.5 0.00 0.00 0.00 49 1018.9
20260901192030 35 342 4.8 14.5 0.00 0.00 0.00 48 1018.9
20260901191546 35 32 1.6 6.4 0.00 0.00 0.00 48 1019.1
20260901191032 35 11 3.2 8.0 0.00 0.00 0.00 48 1019.1
20260901190530 34 290 3.2 8.0 0.00 0.00 0.00 49 1019.2
20260901190052 33 360 3.2 8.0 0.00 0.00 0.00 49 1019.2
20260901185534 33 0 1.6 9.7 0.00 0.00 0.00 49 1019.2
20260901185032 33 360 3.2 11.3 0.00 0.00 0.00 50 1019.2
20260901184554 33 335 4.8 11.3 0.00 0.00 0.00 51 1019.3
20260901184035 33 307 3.2 9.7 0.00 0.00 0.00 52 1019.2
20260901183532 33 30 3.2 11.3 0.00 0.00 0.00 51 1019.3
20260901183051 33 78 1.6 11.3 0.00 0.00 0.00 50 1019.3
20260901182532 33 0 4.8 14.5 0.00 0.00 0.00 51 1019.4
20260901182029 33 146 4.8 14.5 0.00 0.00 0.00 51 1019.4
20260901181600 33 128 1.6 11.3 0.00 0.00 0.00 52 1019.5
20260901181031 33 30 4.8 11.3 0.00 0.00 0.00 53 1019.6
20260901180531 33 74 4.8 9.7 0.00 0.00 0.00 53 1019.6
20260901180049 33 26 4.8 12.9 0.00 0.00 0.00 53 1019.7
20260901175536 33 38 3.2 12.9 0.00 0.00 0.00 54 1019.7
20260901175030 33 17 1.6 9.7 0.00 0.00 0.00 54 1019.8
20260901174551 32 128 1.6 9.7 0.00 0.00 0.00 56 1019.8
20260901174032 32 108 1.6 11.3 0.00 0.00 0.00 56 1019.8
20260901173532 32 10 4.8 11.3 0.00 0.00 0.00 55 1020.0
20260901173101 32 330 3.2 14.5 0.00 0.00 0.00 55 1020.0
20260901172530 32 360 1.6 14.5 0.00 0.00 0.00 56 1020.1
20260901172032 32 13 1.6 11.3 0.00 0.00 0.00 56 1020.2
20260901171603 32 96 3.2 8.0 0.00 0.00 0.00 56 1020.2
20260901171029 32 239 3.2 9.7 0.00 0.00 0.00 55 1020.2
20260901170531 32 326 4.8 11.3 0.00 0.00 0.00 55 1020.3
20260901170054 32 341 4.8 11.3 0.00 0.00 0.00 55 1020.4
20260901165530 32 234 1.6 11.3 0.00 0.00 0.00 56 1020.4
20260901165034 33 153 3.2 12.9 0.00 0.00 0.00 55 1020.5
20260901164555 33 63 3.2 12.9 0.00 0.00 0.00 55 1020.6
20260901164031 33 360 3.2 12.9 0.00 0.00 0.00 55 1020.6
20260901163533 33 19 3.2 14.5 0.00 0.00 0.00 56 1020.7
20260901163047 32 40 4.8 14.5 0.00 0.00 0.00 58 1020.7
20260901162531 32 22 3.2 9.7 0.00 0.00 0.00 57 1020.7
20260901162032 32 196 3.2 12.9 0.00 0.00 0.00 58 1020.7
20260901161552 32 312 4.8 12.9 0.00 0.00 0.00 57 1020.9
20260901161032 32 304 1.6 8.0 0.00 0.00 0.00 59 1021.0
20260901160529 32 98 3.2 9.7 0.00 0.00 0.00 61 1021.1
20260901160055 31 319 1.6 11.3 0.00 0.00 0.00 61 1021.2
20260901155532 31 309 4.8 11.3 0.00 0.00 0.00 63 1021.3
20260901155030 31 219 1.6 11.3 0.00 0.00 0.00 63 1021.3
20260901154549 32 221 3.2 11.3 0.00 0.00 0.00 62 1021.3
20260901154036 31 346 3.2 12.9 0.00 0.00 0.00 63 1021.3
20260901153532 31 68 3.2 12.9 0.00 0.00 0.00 65 1021.3
20260901153118 31 292 1.6 9.7 0.00 0.00 0.00 65 1021.3
20260901152531 31 323 3.2 12.9 0.00 0.00 0.00 66 1021.5
20260901152031 30 334 4.8 12.9 0.00 0.00 0.00 68 1021.5
20260901151544 30 25 4.8 9.7 0.00 0.00 0.00 68 1021.5
20260901151030 30 355 3.2 9.7 0.00 0.00 0.00 70 1021.5
20260901150531 30 286 4.8 9.7 0.00 0.00 0.00 70 1021.4
20260901150056 29 347 3.2 9.7 0.00 0.00 0.00 71 1021.4
20260901145532 28 280 1.6 9.7 0.00 0.00 0.00 72 1021.3
20260901145028 28 275 1.6 8.0 0.00 0.00 0.00 73 1021.3
20260901144554 28 282 1.6 9.7 0.00 0.00 0.00 74 1021.3
20260901144031 28 0 1.6 9.7 0.00 0.00 0.00 74 1021.3
20260901143532 28 315 1.6 9.7 0.00 0.00 0.00 74 1021.4
20260901143108 27 329 3.2 8.0 0.00 0.00 0.00 75 1021.5
20260901142529 27 15 1.6 6.4 0.00 0.00 0.00 77 1021.5
20260901142031 27 0 1.6 6.4 0.00 0.00 0.00 78 1021.4
20260901141547 27 311 3.2 6.4 0.00 0.00 0.00 78 1021.4
20260901141030 27 304 0.0 6.4 0.00 0.00 0.00 79 1021.3
20260901140530 27 0 1.6 6.4 0.00 0.00 0.00 78 1021.3
20260901140048 26 301 1.6 6.4 0.00 0.00 0.00 79 1021.3
20260901135532 26 209 0.0 6.4 0.00 0.00 0.00 81 1021.1
20260901135030 26 61 0.0 3.2 0.00 0.00 0.00 82 1021.1
20260901134551 26 0 0.0 3.2 0.00 0.00 0.00 83 1021.2
20260901134033 26 61 0.0 3.2 0.00 0.00 0.00 83 1021.1
20260901133531 26 63 0.0 3.2 0.00 0.00 0.00 84 1021.1
20260901133049 25 63 0.0 3.2 0.00 0.00 0.00 85 1021.1
20260901132531 25 0 0.0 3.2 0.00 0.00 0.00 85 1021.2
20260901132030 25 0 0.0 3.2 0.00 0.00 0.00 86 1021.2
20260901131557 24 0 0.0 3.2 0.00 0.00 0.00 87 1021.2
20260901131031 24 0 0.0 0.0 0.00 0.00 0.00 87 1021.2
20260901130534 24 0 0.0 0.0 0.00 0.00 0.00 88 1021.2
20260901130052 23 0 0.0 3.2 0.00 0.00 0.00 89 1021.2
20260901125531 23 0 0.0 4.8 0.00 0.00 0.00 89 1021.1
20260901125031 23 0 1.6 4.8 0.00 0.00 0.00 89 1021.1
20260901124551 23 51 0.0 3.2 0.00 0.00 0.00 90 1021.2
20260901124031 23 0 0.0 3.2 0.00 0.00 0.00 90 1021.3
20260901123530 23 0 0.0 3.2 0.00 0.00 0.00 90 1021.3
20260901123107 22 0 0.0 3.2 0.00 0.00 0.00 90 1021.1
20260901122559 22 40 0.0 3.2 0.00 0.00 0.00 91 1021.0
20260901122031 22 40 0.0 3.2 0.00 0.00 0.00 91 1021.0
20260901121603 22 40 0.0 3.2 0.00 0.00 0.00 91 1021.0
20260901121028 22 0 0.0 3.2 0.00 0.00 0.00 91 1020.9
20260901120530 22 0 0.0 3.2 0.00 0.00 0.00 91 1020.9
20260901120048 22 0 0.0 4.8 0.00 0.00 0.00 91 1020.8
20260901115532 22 0 0.0 4.8 0.00 0.00 0.00 91 1020.7
20260901115031 22 40 1.6 4.8 0.00 0.00 0.00 91 1020.7
20260901114542 22 0 0.0 0.0 0.00 0.00 0.00 91 1020.6
20260901114035 22 0 0.0 1.6 0.00 0.00 0.00 91 1020.6
20260901113530 22 0 0.0 1.6 0.00 0.00 0.00 91 1020.6
20260901113100 22 0 0.0 3.2 0.00 0.00 0.00 91 1020.4
20260901112531 22 0 0.0 3.2 0.00 0.00 0.00 91 1020.4
20260901112031 22 0 0.0 1.6 0.00 0.00 0.00 90 1020.4
20260901111551 22 0 0.0 3.2 0.00 0.00 0.00 91 1020.3
20260901111033 22 0 0.0 3.2 0.00 0.00 0.00 90 1020.2
20260901110532 22 44 0.0 3.2 0.00 0.00 0.00 91 1020.1
20260901110046 22 0 0.0 4.8 0.00 0.00 0.00 91 1020.0
20260901105530 22 44 0.0 4.8 0.00 0.00 0.00 90 1020.0
20260901105032 22 0 1.6 4.8 0.00 0.00 0.00 90 1020.0
20260901104556 22 48 0.0 3.2 0.00 0.00 0.00 90 1019.9
20260901104033 22 0 0.0 0.0 0.00 0.00 0.00 90 1019.9
20260901103535 22 0 0.0 0.0 0.00 0.00 0.00 90 1019.9
20260901103100 22 0 0.0 0.0 0.00 0.00 0.00 90 1019.9
20260901102531 22 0 0.0 0.0 0.00 0.00 0.00 90 1019.9
20260901102032 22 0 0.0 0.0 0.00 0.00 0.00 90 1019.8
20260901101552 22 0 0.0 0.0 0.00 0.00 0.00 90 1019.8
20260901101031 22 0 0.0 0.0 0.00 0.00 0.00 90 1019.8
20260901100533 22 0 0.0 0.0 0.00 0.00 0.00 90 1019.8
20260901095533 22 0 0.0 1.6 0.00 0.00 0.00 90 1019.6
20260901095031 22 0 0.0 3.2 0.00 0.00 0.00 89 1019.6
20260901094544 22 0 0.0 3.2 0.00 0.00 0.00 89 1019.5
20260901094030 22 48 0.0 1.6 0.00 0.00 0.00 89 1019.5
20260901093534 22 0 0.0 1.6 0.00 0.00 0.00 89 1019.5
20260901093104 22 0 0.0 0.0 0.00 0.00 0.00 89 1019.5
20260901092535 22 0 0.0 0.0 0.00 0.00 0.00 89 1019.5
20260901092031 22 0 0.0 1.6 0.00 0.00 0.00 89 1019.5
20260901091556 22 0 0.0 3.2 0.00 0.00 0.00 89 1019.5
20260901091029 22 0 0.0 3.2 0.00 0.00 0.00 89 1019.4
20260901090530 22 49 1.6 3.2 0.00 0.00 0.00 89 1019.3
20260901090055 22 0 0.0 0.0 0.00 0.00 0.00 89 1019.3
20260901085527 22 0 0.0 0.0 0.00 0.00 0.00 89 1019.3
20260901085031 22 0 0.0 1.6 0.00 0.00 0.00 89 1019.3
20260901084549 22 0 0.0 3.2 0.00 0.00 0.00 89 1019.2
20260901084033 22 0 0.0 3.2 0.00 0.00 0.00 89 1019.2
20260901083529 22 49 0.0 3.2 0.00 0.00 0.00 89 1019.2
20260901083051 22 0 0.0 0.0 0.00 0.00 0.00 88 1019.3
20260901082529 22 0 0.0 1.6 0.00 0.00 0.00 88 1019.3
20260901082030 22 0 0.0 1.6 0.00 0.00 0.00 88 1019.4
20260901081548 22 0 0.0 1.6 0.00 0.00 0.00 88 1019.4
20260901081030 22 0 0.0 1.6 0.00 0.00 0.00 88 1019.5
20260901080533 22 0 0.0 3.2 0.00 0.00 0.00 88 1019.4
20260901080057 22 0 0.0 6.4 0.00 0.00 0.00 88 1019.3
20260901075533 22 51 1.6 6.4 0.00 0.00 0.00 88 1019.3
20260901075029 23 51 1.6 6.4 0.00 0.00 0.00 88 1019.3
20260901074553 23 76 0.0 0.0 0.00 0.00 0.00 88 1019.3
20260901074032 23 0 0.0 0.0 0.00 0.00 0.00 88 1019.2
20260901073529 23 0 0.0 0.0 0.00 0.00 0.00 88 1019.2
20260901073053 23 0 0.0 0.0 0.00 0.00 0.00 88 1019.3
20260901072528 23 0 0.0 0.0 0.00 0.00 0.00 88 1019.3
20260901072029 23 0 0.0 0.0 0.00 0.00 0.00 88 1019.3
20260901071554 23 0 0.0 0.0 0.00 0.00 0.00 88 1019.3
20260901071032 23 0 0.0 0.0 0.00 0.00 0.00 88 1019.3
20260901070531 23 0 0.0 0.0 0.00 0.00 0.00 87 1019.4
20260901070051 23 0 0.0 0.0 0.00 0.00 0.00 87 1019.4
20260901065531 23 0 0.0 0.0 0.00 0.00 0.00 87 1019.4
20260901065029 23 0 0.0 0.0 0.00 0.00 0.00 87 1019.5
20260901064549 23 0 0.0 0.0 0.00 0.00 0.00 87 1019.5
20260901064029 23 0 0.0 0.0 0.00 0.00 0.00 87 1019.5
20260901063528 23 0 0.0 0.0 0.00 0.00 0.00 87 1019.5
20260901063053 23 0 0.0 0.0 0.00 0.00 0.00 87 1019.5
20260901062532 23 0 0.0 0.0 0.00 0.00 0.00 87 1019.6
20260901062031 23 0 0.0 0.0 0.00 0.00 0.00 86 1019.6
20260901061546 23 0 0.0 3.2 0.00 0.00 0.00 86 1019.7
20260901061030 23 0 0.0 3.2 0.00 0.00 0.00 86 1019.6
20260901060529 23 0 0.0 0.0 0.00 0.00 0.00 87 1019.6
20260901060049 23 0 0.0 0.0 0.00 0.00 0.00 87 1019.6
20260901055528 23 0 0.0 0.0 0.00 0.00 0.00 87 1019.5
20260901055028 23 0 0.0 0.0 0.00 0.00 0.00 87 1019.6
20260901054559 23 0 0.0 3.2 0.00 0.00 0.00 87 1019.6
20260901054031 23 0 0.0 3.2 0.00 0.00 0.00 87 1019.8
20260901053530 23 0 0.0 3.2 0.00 0.00 0.00 86 1019.8
20260901053046 23 0 0.0 0.0 0.00 0.00 0.00 86 1019.8
20260901052528 23 0 0.0 0.0 0.00 0.00 0.00 86 1019.8
20260901052028 23 0 0.0 0.0 0.00 0.00 0.00 86 1019.8
20260901051557 23 0 0.0 0.0 0.00 0.00 0.00 86 1019.7
20260901051030 23 0 0.0 0.0 0.00 0.00 0.00 85 1019.7
20260901050528 23 0 0.0 1.6 0.00 0.00 0.00 85 1019.6
20260901050051 23 0 0.0 1.6 0.00 0.00 0.00 85 1019.7
20260901045531 23 0 0.0 3.2 0.00 0.00 0.00 85 1019.8
20260901045028 23 0 0.0 3.2 0.00 0.00 0.00 85 1019.8
20260901044602 23 0 0.0 3.2 0.00 0.00 0.00 85 1019.8
20260901044029 23 0 0.0 0.0 0.00 0.00 0.00 85 1019.8
20260901043529 23 0 0.0 0.0 0.00 0.00 0.00 84 1019.8
20260901043056 24 0 0.0 0.0 0.00 0.00 0.00 84 1019.6
20260901042534 24 0 0.0 0.0 0.00 0.00 0.00 84 1019.6
20260901042029 24 0 0.0 0.0 0.00 0.00 0.00 83 1019.6
20260901041542 24 0 0.0 0.0 0.00 0.00 0.00 84 1019.6
20260901041032 24 0 0.0 0.0 0.00 0.00 0.00 83 1019.6
20260901040529 24 0 0.0 1.6 0.00 0.00 0.00 83 1019.5
20260901040052 24 0 0.0 1.6 0.00 0.00 0.00 82 1019.6
20260901035528 24 0 0.0 1.6 0.00 0.00 0.00 82 1019.6
20260901035029 24 0 0.0 0.0 0.00 0.00 0.00 82 1019.6
20260901034544 24 0 0.0 0.0 0.00 0.00 0.00 82 1019.6
20260901034028 24 0 0.0 0.0 0.00 0.00 0.00 82 1019.6
20260901033528 24 0 0.0 0.0 0.00 0.00 0.00 82 1019.6
20260901033059 25 0 0.0 1.6 0.00 0.00 0.00 81 1019.7
20260901032529 25 0 0.0 1.6 0.00 0.00 0.00 81 1019.6
20260901032029 25 0 0.0 1.6 0.00 0.00 0.00 80 1019.6
20260901031543 25 0 0.0 0.0 0.00 0.00 0.00 80 1019.6
20260901031028 25 0 0.0 0.0 0.00 0.00 0.00 79 1019.7
20260901030529 25 0 0.0 0.0 0.00 0.00 0.00 79 1019.6
20260901030053 25 0 0.0 0.0 0.00 0.00 0.00 79 1019.7
20260901025530 25 0 0.0 0.0 0.00 0.00 0.00 78 1019.8
20260901025031 25 0 0.0 0.0 0.00 0.00 0.00 78 1019.8
20260901024546 25 0 0.0 0.0 0.00 0.00 0.00 78 1019.8
20260901024028 25 0 0.0 0.0 0.00 0.00 0.00 77 1019.8
20260901023529 25 0 0.0 0.0 0.00 0.00 0.00 77 1019.8
20260901023055 25 0 0.0 0.0 0.00 0.00 0.00 76 1019.7
20260901022531 25 0 0.0 0.0 0.00 0.00 0.00 76 1019.6
20260901022030 26 0 0.0 0.0 0.00 0.00 0.00 75 1019.6
20260901021543 26 0 0.0 0.0 0.00 0.00 0.00 74 1019.6
20260901021029 26 0 0.0 0.0 0.00 0.00 0.00 74 1019.6
20260901020529 26 0 0.0 0.0 0.00 0.00 0.00 75 1019.6
20260901020055 26 0 0.0 0.0 0.00 0.00 0.00 75 1019.5
20260901015532 26 0 0.0 0.0 0.00 0.00 0.00 74 1019.4
20260901015028 26 0 0.0 0.0 0.00 0.00 0.00 74 1019.5
20260901014553 26 0 0.0 0.0 0.00 0.00 0.00 73 1019.4
20260901014028 26 0 0.0 0.0 0.00 0.00 0.00 72 1019.4
20260901013533 27 0 0.0 0.0 0.00 0.00 0.00 71 1019.4
20260901013042 27 0 0.0 0.0 0.00 0.00 0.00 70 1019.3
20260901012535 27 0 0.0 0.0 0.00 0.00 0.00 70 1019.2
20260901012028 27 0 0.0 0.0 0.00 0.00 0.00 70 1019.2
20260901011601 27 0 0.0 0.0 0.00 0.00 0.00 69 1019.1
20260901011028 27 0 0.0 0.0 0.00 0.00 0.00 69 1018.9
20260901010528 27 0 0.0 0.0 0.00 0.00 0.00 68 1018.8
20260901010051 27 0 0.0 0.0 0.00 0.00 0.00 68 1018.8
20260901005527 28 0 0.0 0.0 0.00 0.00 0.00 67 1018.8
20260901005031 28 0 0.0 0.0 0.00 0.00 0.00 67 1018.7
20260901004555 28 0 0.0 0.0 0.00 0.00 0.00 66 1018.8
20260901004031 28 0 0.0 0.0 0.00 0.00 0.00 66 1018.7
20260901003529 28 0 0.0 0.0 0.00 0.00 0.00 66 1018.7
20260901003042 28 0 0.0 0.0 0.00 0.00 0.00 65 1018.7
20260901002529 29 0 0.0 0.0 0.00 0.00 0.00 64 1018.6
20260901002032 29 0 0.0 3.2 0.00 0.00 0.00 63 1018.6
20260901001551 30 0 0.0 3.2 0.00 0.00 0.00 61 1018.5
20260901001032 30 0 0.0 3.2 0.00 0.00 0.00 60 1018.6
20260901000533 30 0 0.0 0.0 0.00 0.00 0.00 59 1018.6
20260901000049 30 0 0.0 0.0 0.00 0.00 0.00 58 1018.5
20260831235531 30 0 0.0 0.0 0.00 0.00 0.00 58 1018.5
20260831235033 31 0 0.0 0.0 0.00 0.00 0.00 57 1018.4
20260831234551 31 0 0.0 0.0 0.00 0.00 0.00 57 1018.4
20260831234034 31 0 0.0 1.6 0.00 0.00 0.00 56 1018.4
20260831233531 31 0 0.0 1.6 0.00 0.00 0.00 55 1018.5
20260831233049 31 0 0.0 1.6 0.00 0.00 0.00 55 1018.5
20260831232530 31 0 0.0 4.8 0.00 0.00 0.00 55 1018.4
20260831232031 31 0 0.0 4.8 0.00 0.00 0.00 54 1018.4
20260831231545 32 76 0.0 4.8 0.00 0.00 0.00 54 1018.4